,,,PA_Meas_PMT16A,,PR_Meas_QMR101_102,,RH_Meas_QMH101,,SR_Meas_QMS101,,TA_Meas_QMH101,,GenWind,,GenWind,
date,time,status,PA,status,PR,status,RH,status,SR,status,TA,status,DirAvg,status,SpdAvg,
2009-07-01, 00:00:04,VALID,1001.75,VALID,0,VALID,92.6694,VALID,0,VALID,22.6672,VALID,48,VALID,1.1582,
2009-07-01, 00:01:04,VALID,1001.74,VALID,0,VALID,92.6007,VALID,0,VALID,22.6689,VALID,50,VALID,0.861328,
2009-07-01, 00:02:04,VALID,1001.74,VALID,0,VALID,92.5473,VALID,0,VALID,22.6689,VALID,51,VALID,0.685156,
2009-07-01, 00:03:04,VALID,1001.74,VALID,0,VALID,92.532,VALID,0,VALID,22.6282,VALID,52,VALID,0.364062,
2009-07-01, 00:04:04,VALID,1001.73,VALID,0,VALID,92.471,VALID,0,VALID,22.5892,VALID,52,VALID,0.0199219,
2009-07-01, 00:05:04,VALID,1001.74,VALID,0,VALID,92.6541,VALID,0,VALID,22.5892,VALID,52,VALID,0.276563,
2009-07-01, 00:06:04,VALID,1001.77,VALID,0,VALID,92.7838,VALID,0,VALID,22.6104,VALID,52,VALID,0.0925781,
2009-07-01, 00:07:04,VALID,1001.75,VALID,0,VALID,92.9364,VALID,0,VALID,22.6299,VALID,40,VALID,0.382813,
2009-07-01, 00:08:04,VALID,1001.76,VALID,0,VALID,93.0356,VALID,0,VALID,22.6494,VALID,249,VALID,0.689453,
2009-07-01, 00:09:04,VALID,1001.79,VALID,0,VALID,93.2263,VALID,0,VALID,22.7079,VALID,247,VALID,0.573047,
2009-07-01, 00:10:04,VALID,1001.8,VALID,0,VALID,93.2034,VALID,0,VALID,22.7469,VALID,247,VALID,0.0140625,
2009-07-01, 00:11:04,VALID,1001.81,VALID,0,VALID,93.1043,VALID,0,VALID,22.7877,VALID,247,VALID,0.00546875,
2009-07-01, 00:12:04,VALID,1001.81,VALID,0,VALID,93.0585,VALID,0,VALID,22.786,VALID,247,VALID,0.266406,
2009-07-01, 00:13:04,VALID,1001.82,VALID,0,VALID,92.8983,VALID,0,VALID,22.786,VALID,12,VALID,0.648438,
2009-07-01, 00:14:04,VALID,1001.79,VALID,0,VALID,92.8906,VALID,0,VALID,22.8055,VALID,12,VALID,0.654688,
2009-07-01, 00:15:04,VALID,1001.8,VALID,0,VALID,92.7685,VALID,0,VALID,22.8232,VALID,12,VALID,0.660547,
2009-07-01, 00:16:04,VALID,1001.79,VALID,0,VALID,92.6541,VALID,0,VALID,22.8445,VALID,12,VALID,0.712109,
2009-07-01, 00:17:04,VALID,1001.8,VALID,0,VALID,92.6312,VALID,0,VALID,22.864,VALID,12,VALID,0.692578,
2009-07-01, 00:18:04,VALID,1001.78,VALID,0,VALID,92.5626,VALID,0,VALID,22.864,VALID,12,VALID,0.651563,
2009-07-01, 00:19:04,VALID,1001.81,VALID,0,VALID,92.5778,VALID,0,VALID,22.864,VALID,12,VALID,0.575391,
2009-07-01, 00:20:04,VALID,1001.79,VALID,0,VALID,92.6007,VALID,0,VALID,22.864,VALID,12,VALID,0.539063,
2009-07-01, 00:21:04,VALID,1001.77,VALID,0,VALID,92.5854,VALID,0,VALID,22.864,VALID,12,VALID,0.524219,
2009-07-01, 00:22:04,VALID,1001.77,VALID,0,VALID,92.6007,VALID,0,VALID,22.8623,VALID,12,VALID,0.554297,
2009-07-01, 00:23:04,VALID,1001.75,VALID,0,VALID,92.4634,VALID,0,VALID,22.8445,VALID,12,VALID,0.385156,
2009-07-01, 00:24:04,VALID,1001.74,VALID,0,VALID,92.5473,VALID,0,VALID,22.8232,VALID,12,VALID,0.477734,
2009-07-01, 00:25:04,VALID,1001.76,VALID,0,VALID,92.5931,VALID,0,VALID,22.825,VALID,12,VALID,0.578516,
2009-07-01, 00:26:04,VALID,1001.74,VALID,0,VALID,92.532,VALID,0,VALID,22.8055,VALID,12,VALID,0.506641,
2009-07-01, 00:27:04,VALID,1001.73,VALID,0,VALID,92.6007,VALID,0,VALID,22.786,VALID,12,VALID,0.403516,
2009-07-01, 00:28:04,VALID,1001.74,VALID,0,VALID,92.6236,VALID,0,VALID,22.7452,VALID,12,VALID,0.253906,
2009-07-01, 00:29:04,VALID,1001.68,VALID,0,VALID,92.677,VALID,0,VALID,22.7257,VALID,12,VALID,0.152734,
2009-07-01, 00:30:04,VALID,1001.65,VALID,0,VALID,92.7457,VALID,0,VALID,22.7469,VALID,12,VALID,0.0738281,
2009-07-01, 00:31:04,VALID,1001.66,VALID,0,VALID,92.7838,VALID,0,VALID,22.7274,VALID,12,VALID,0,
2009-07-01, 00:32:04,VALID,1001.65,VALID,0,VALID,92.822,VALID,0,VALID,22.7079,VALID,12,VALID,0,
2009-07-01, 00:33:04,VALID,1001.64,VALID,0,VALID,92.471,VALID,0,VALID,22.6689,VALID,12,VALID,0,
2009-07-01, 00:34:04,VALID,1001.62,VALID,0,VALID,92.738,VALID,0,VALID,22.6282,VALID,12,VALID,0,
2009-07-01, 00:35:04,VALID,1001.62,VALID,0,VALID,93.0051,VALID,0,VALID,22.6494,VALID,56,VALID,0.808984,
2009-07-01, 00:36:04,VALID,1001.6,VALID,0,VALID,92.5854,VALID,0,VALID,22.6282,VALID,65,VALID,1.16758,
2009-07-01, 00:37:04,VALID,1001.6,VALID,0,VALID,92.3108,VALID,0,VALID,22.6299,VALID,65,VALID,1.02773,
2009-07-01, 00:38:04,VALID,1001.58,VALID,0,VALID,92.1658,VALID,0,VALID,22.5696,VALID,62,VALID,1.0418,
2009-07-01, 00:39:04,VALID,1001.59,VALID,0,VALID,92.1582,VALID,0,VALID,22.5323,VALID,60,VALID,0.964844,
2009-07-01, 00:40:04,VALID,1001.57,VALID,0,VALID,92.0285,VALID,0.112286,VALID,22.4704,VALID,60,VALID,0.628125,
2009-07-01, 00:41:04,VALID,1001.56,VALID,0,VALID,92.3947,VALID,0.112286,VALID,22.4721,VALID,59,VALID,1.0543,
2009-07-01, 00:42:04,VALID,1001.54,VALID,0,VALID,92.5244,VALID,0,VALID,22.4509,VALID,59,VALID,0.986719,
2009-07-01, 00:43:04,VALID,1001.52,VALID,0,VALID,92.7838,VALID,0.112286,VALID,22.4916,VALID,59,VALID,0.982031,
2009-07-01, 00:44:04,VALID,1001.51,VALID,0,VALID,92.8448,VALID,0,VALID,22.5111,VALID,59,VALID,1.02695,
2009-07-01, 00:45:04,VALID,1001.49,VALID,0,VALID,92.7914,VALID,0,VALID,22.5306,VALID,59,VALID,1.25039,
2009-07-01, 00:46:04,VALID,1001.5,VALID,0,VALID,92.883,VALID,0,VALID,22.5306,VALID,59,VALID,1.51289,
2009-07-01, 00:47:04,VALID,1001.44,VALID,0,VALID,92.9593,VALID,0.112286,VALID,22.5501,VALID,57,VALID,1.53828,
2009-07-01, 00:48:04,VALID,1001.42,VALID,0,VALID,92.8601,VALID,0.112286,VALID,22.5094,VALID,52,VALID,1.4918,
2009-07-01, 00:49:04,VALID,1001.39,VALID,0,VALID,92.883,VALID,0,VALID,22.5289,VALID,45,VALID,1.40313,
2009-07-01, 00:50:04,VALID,1001.35,VALID,0,VALID,92.8525,VALID,0.112286,VALID,22.5094,VALID,44,VALID,1.46211,
2009-07-01, 00:51:04,VALID,1001.33,VALID,0,VALID,92.8448,VALID,0.112286,VALID,22.5306,VALID,43,VALID,1.5043,
2009-07-01, 00:52:04,VALID,1001.29,VALID,0,VALID,92.8906,VALID,0.112286,VALID,22.5289,VALID,40,VALID,1.43477,
2009-07-01, 00:53:04,VALID,1001.27,VALID,0,VALID,92.9974,VALID,0,VALID,22.5289,VALID,37,VALID,1.41094,
2009-07-01, 00:54:04,VALID,1001.29,VALID,0,VALID,92.8296,VALID,0.112286,VALID,22.5094,VALID,34,VALID,1.30352,
2009-07-01, 00:55:04,VALID,1001.28,VALID,0,VALID,92.8677,VALID,0,VALID,22.5111,VALID,35,VALID,1.30313,
2009-07-01, 00:56:04,VALID,1001.29,VALID,0,VALID,92.8067,VALID,0,VALID,22.5128,VALID,34,VALID,1.10664,
2009-07-01, 00:57:04,VALID,1001.27,VALID,0,VALID,92.9211,VALID,0,VALID,22.4933,VALID,34,VALID,0.979297,
2009-07-01, 00:58:04,VALID,1001.27,VALID,0,VALID,92.8906,VALID,0,VALID,22.4526,VALID,34,VALID,0.817187,
2009-07-01, 00:59:04,VALID,1001.26,VALID,0,VALID,92.9898,VALID,0,VALID,22.4526,VALID,34,VALID,0.778906,
2009-07-01, 01:00:04,VALID,1001.26,VALID,0,VALID,93.0508,VALID,0,VALID,22.4526,VALID,35,VALID,0.645312,
2009-07-01, 01:01:04,VALID,1001.26,VALID,0,VALID,93.0051,VALID,0,VALID,22.4136,VALID,35,VALID,0.162891,
2009-07-01, 01:02:04,VALID,1001.28,VALID,0,VALID,93.0966,VALID,0,VALID,22.3941,VALID,35,VALID,0.130078,
2009-07-01, 01:03:04,VALID,1001.25,VALID,0,VALID,93.2111,VALID,0,VALID,22.4136,VALID,35,VALID,0,
2009-07-01, 01:04:04,VALID,1001.28,VALID,0,VALID,93.2492,VALID,0,VALID,22.4153,VALID,35,VALID,0,
2009-07-01, 01:05:04,VALID,1001.28,VALID,0,VALID,93.3408,VALID,0,VALID,22.4153,VALID,35,VALID,0,
2009-07-01, 01:06:04,VALID,1001.29,VALID,0,VALID,93.44,VALID,0,VALID,22.4136,VALID,35,VALID,0,
2009-07-01, 01:07:04,VALID,1001.26,VALID,0,VALID,93.5239,VALID,0,VALID,22.4348,VALID,35,VALID,0.329297,
2009-07-01, 01:08:04,VALID,1001.24,VALID,0,VALID,93.5926,VALID,0,VALID,22.4331,VALID,35,VALID,0.532422,
2009-07-01, 01:09:04,VALID,1001.22,VALID,0,VALID,93.4705,VALID,0,VALID,22.4543,VALID,70,VALID,0.971094,
2009-07-01, 01:10:04,VALID,1001.21,VALID,0,VALID,93.3789,VALID,0,VALID,22.4348,VALID,77,VALID,1.12656,
2009-07-01, 01:11:04,VALID,1001.19,VALID,0,VALID,93.4247,VALID,0,VALID,22.4331,VALID,77,VALID,0.89375,
2009-07-01, 01:12:04,VALID,1001.21,VALID,0,VALID,93.2492,VALID,0,VALID,22.4331,VALID,77,VALID,0.708594,
2009-07-01, 01:13:04,VALID,1001.21,VALID,0,VALID,93.0203,VALID,0,VALID,22.4136,VALID,77,VALID,0.651953,
2009-07-01, 01:14:04,VALID,1001.23,VALID,0,VALID,92.9593,VALID,0,VALID,22.3941,VALID,78,VALID,0.572266,
2009-07-01, 01:15:04,VALID,1001.2,VALID,0,VALID,93.1805,VALID,0,VALID,22.3746,VALID,78,VALID,0.55,
2009-07-01, 01:16:04,VALID,1001.2,VALID,0,VALID,93.2645,VALID,0,VALID,22.3941,VALID,78,VALID,0.529688,
2009-07-01, 01:17:04,VALID,1001.18,VALID,0,VALID,93.4247,VALID,0,VALID,22.4153,VALID,78,VALID,0.444922,
2009-07-01, 01:18:04,VALID,1001.17,VALID,0,VALID,93.3408,VALID,0,VALID,22.4543,VALID,78,VALID,0.392578,
2009-07-01, 01:19:04,VALID,1001.12,VALID,0,VALID,93.1729,VALID,0,VALID,22.4543,VALID,77,VALID,0.589453,
2009-07-01, 01:20:04,VALID,1001.13,VALID,0,VALID,93.2263,VALID,0,VALID,22.4348,VALID,77,VALID,0.520312,
2009-07-01, 01:21:04,VALID,1001.08,VALID,0,VALID,93.1729,VALID,0,VALID,22.4331,VALID,77,VALID,0.500781,
2009-07-01, 01:22:04,VALID,1001.07,VALID,0,VALID,93.2492,VALID,0,VALID,22.4331,VALID,47,VALID,0.6625,
2009-07-01, 01:23:04,VALID,1001.05,VALID,0,VALID,93.3713,VALID,0,VALID,22.4526,VALID,38,VALID,0.958594,
2009-07-01, 01:24:04,VALID,1001.04,VALID,0,VALID,93.3179,VALID,0,VALID,22.4933,VALID,38,VALID,0.970312,
2009-07-01, 01:25:04,VALID,1001.01,VALID,0,VALID,93.1653,VALID,0,VALID,22.4721,VALID,38,VALID,0.902734,
2009-07-01, 01:26:04,VALID,1000.99,VALID,0,VALID,93.028,VALID,0,VALID,22.4526,VALID,38,VALID,0.84375,
2009-07-01, 01:27:04,VALID,1001.01,VALID,0,VALID,92.8372,VALID,0,VALID,22.4136,VALID,38,VALID,0.570313,
2009-07-01, 01:28:04,VALID,1001.01,VALID,0,VALID,92.7075,VALID,0,VALID,22.3551,VALID,38,VALID,0.211328,
2009-07-01, 01:29:04,VALID,1001,VALID,0,VALID,92.7304,VALID,0.112286,VALID,22.3356,VALID,38,VALID,0,
2009-07-01, 01:30:04,VALID,1000.98,VALID,0,VALID,92.822,VALID,0,VALID,22.2966,VALID,38,VALID,0,
2009-07-01, 01:31:04,VALID,1001.01,VALID,0,VALID,92.944,VALID,0,VALID,22.2771,VALID,38,VALID,0,
2009-07-01, 01:32:04,VALID,1000.98,VALID,0,VALID,93.1119,VALID,0,VALID,22.2771,VALID,38,VALID,0,
2009-07-01, 01:33:04,VALID,1000.99,VALID,0,VALID,93.2645,VALID,0,VALID,22.2966,VALID,38,VALID,0.190625,
2009-07-01, 01:34:04,VALID,1001,VALID,0,VALID,93.295,VALID,0,VALID,22.2771,VALID,38,VALID,0.267188,
2009-07-01, 01:35:04,VALID,1001.01,VALID,0,VALID,93.2263,VALID,0,VALID,22.2576,VALID,38,VALID,0.207813,
2009-07-01, 01:36:04,VALID,1001.01,VALID,0,VALID,93.3942,VALID,0,VALID,22.2771,VALID,38,VALID,0.1875,
2009-07-01, 01:37:04,VALID,1000.99,VALID,0,VALID,93.3866,VALID,0,VALID,22.2771,VALID,38,VALID,0,
2009-07-01, 01:38:04,VALID,1000.95,VALID,0,VALID,93.4323,VALID,0,VALID,22.2771,VALID,38,VALID,0,
2009-07-01, 01:39:04,VALID,1000.92,VALID,0,VALID,93.5239,VALID,0,VALID,22.2966,VALID,38,VALID,0,
2009-07-01, 01:40:04,VALID,1000.91,VALID,0,VALID,93.5468,VALID,0,VALID,22.2771,VALID,38,VALID,0,
2009-07-01, 01:41:04,VALID,1000.88,VALID,0,VALID,93.562,VALID,0.112286,VALID,22.2754,VALID,38,VALID,0,
2009-07-01, 01:42:04,VALID,1000.85,VALID,0,VALID,93.6002,VALID,0,VALID,22.2771,VALID,38,VALID,0.194922,
2009-07-01, 01:43:04,VALID,1000.89,VALID,0,VALID,93.7604,VALID,0,VALID,22.3339,VALID,144,VALID,0.505859,
2009-07-01, 01:44:04,VALID,1000.88,VALID,0,VALID,93.8672,VALID,0,VALID,22.3941,VALID,162,VALID,0.515234,
2009-07-01, 01:45:04,VALID,1000.87,VALID,0,VALID,93.9969,VALID,0,VALID,22.4721,VALID,163,VALID,0.578906,
2009-07-01, 01:46:04,VALID,1000.87,VALID,0,VALID,93.8825,VALID,0,VALID,22.5111,VALID,170,VALID,0.451953,
2009-07-01, 01:47:04,VALID,1000.88,VALID,0,VALID,93.7146,VALID,0,VALID,22.4916,VALID,170,VALID,0.283594,
2009-07-01, 01:48:04,VALID,1000.87,VALID,0,VALID,93.5086,VALID,0,VALID,22.4933,VALID,170,VALID,0.168359,
2009-07-01, 01:49:04,VALID,1000.88,VALID,0,VALID,93.3789,VALID,0,VALID,22.4721,VALID,170,VALID,0.203125,
2009-07-01, 01:50:04,VALID,1000.88,VALID,0,VALID,93.3484,VALID,0,VALID,22.4721,VALID,170,VALID,0,
2009-07-01, 01:51:04,VALID,1000.88,VALID,0,VALID,93.2263,VALID,0,VALID,22.4526,VALID,170,VALID,0,
2009-07-01, 01:52:04,VALID,1000.89,VALID,0,VALID,93.3331,VALID,0,VALID,22.4526,VALID,170,VALID,0.324609,
2009-07-01, 01:53:04,VALID,1000.86,VALID,0,VALID,93.2721,VALID,0,VALID,22.4526,VALID,170,VALID,0.420703,
2009-07-01, 01:54:04,VALID,1000.85,VALID,0,VALID,93.3789,VALID,0,VALID,22.4331,VALID,170,VALID,0.594141,
2009-07-01, 01:55:04,VALID,1000.84,VALID,0,VALID,93.2568,VALID,0,VALID,22.4331,VALID,170,VALID,0.232422,
2009-07-01, 01:56:04,VALID,1000.84,VALID,0,VALID,93.2874,VALID,0,VALID,22.4331,VALID,170,VALID,0.283203,
2009-07-01, 01:57:04,VALID,1000.83,VALID,0,VALID,93.2416,VALID,0,VALID,22.4331,VALID,170,VALID,0.282031,
2009-07-01, 01:58:04,VALID,1000.82,VALID,0,VALID,93.2645,VALID,0,VALID,22.4526,VALID,134,VALID,0.596875,
2009-07-01, 01:59:04,VALID,1000.81,VALID,0,VALID,93.1424,VALID,0,VALID,22.4916,VALID,131,VALID,0.102344,
2009-07-01, 02:00:04,VALID,1000.79,VALID,0,VALID,92.8677,VALID,0,VALID,22.4721,VALID,131,VALID,0,
2009-07-01, 02:01:04,VALID,1000.8,VALID,0,VALID,92.7457,VALID,0,VALID,22.4526,VALID,131,VALID,0,
2009-07-01, 02:02:04,VALID,1000.81,VALID,0,VALID,92.7457,VALID,0,VALID,22.4526,VALID,131,VALID,0.34375,
2009-07-01, 02:03:04,VALID,1000.83,VALID,0,VALID,92.5702,VALID,0,VALID,22.3941,VALID,131,VALID,0.6375,
2009-07-01, 02:04:04,VALID,1000.8,VALID,0,VALID,92.7991,VALID,0,VALID,22.3746,VALID,131,VALID,0.708594,
2009-07-01, 02:05:04,VALID,1000.84,VALID,0,VALID,92.8677,VALID,0,VALID,22.3551,VALID,131,VALID,0.608203,
2009-07-01, 02:06:04,VALID,1000.85,VALID,0,VALID,92.883,VALID,0,VALID,22.3551,VALID,131,VALID,0.499609,
2009-07-01, 02:07:04,VALID,1000.87,VALID,0,VALID,92.8372,VALID,0,VALID,22.2966,VALID,131,VALID,0.269922,
2009-07-01, 02:08:04,VALID,1000.87,VALID,0,VALID,93.0356,VALID,0,VALID,22.2966,VALID,131,VALID,0.215625,
2009-07-01, 02:09:04,VALID,1000.88,VALID,0,VALID,93.234,VALID,0,VALID,22.3161,VALID,131,VALID,0,
2009-07-01, 02:10:04,VALID,1000.88,VALID,0,VALID,93.2645,VALID,0,VALID,22.3178,VALID,131,VALID,0,
2009-07-01, 02:11:04,VALID,1000.88,VALID,0,VALID,93.295,VALID,0,VALID,22.3161,VALID,131,VALID,0,
2009-07-01, 02:12:04,VALID,1000.85,VALID,0,VALID,93.5163,VALID,0,VALID,22.3161,VALID,131,VALID,0.180078,
2009-07-01, 02:13:04,VALID,1000.86,VALID,0,VALID,93.646,VALID,0,VALID,22.3551,VALID,131,VALID,0.346094,
2009-07-01, 02:14:04,VALID,1000.86,VALID,0,VALID,93.5773,VALID,0,VALID,22.3941,VALID,131,VALID,0.283984,
2009-07-01, 02:15:04,VALID,1000.86,VALID,0,VALID,93.44,VALID,0,VALID,22.4153,VALID,131,VALID,0.496094,
2009-07-01, 02:16:04,VALID,1000.86,VALID,0,VALID,93.3789,VALID,0,VALID,22.4331,VALID,131,VALID,0.276172,
2009-07-01, 02:17:04,VALID,1000.85,VALID,0,VALID,93.2111,VALID,0,VALID,22.4526,VALID,131,VALID,0.283203,
2009-07-01, 02:18:04,VALID,1000.86,VALID,0,VALID,92.9745,VALID,0,VALID,22.4721,VALID,131,VALID,0.246094,
2009-07-01, 02:19:04,VALID,1000.85,VALID,0,VALID,92.9593,VALID,0,VALID,22.4721,VALID,131,VALID,0.333594,
2009-07-01, 02:20:04,VALID,1000.85,VALID,0,VALID,92.9135,VALID,0,VALID,22.5111,VALID,131,VALID,0.492188,
2009-07-01, 02:21:04,VALID,1000.83,VALID,0,VALID,92.8143,VALID,0,VALID,22.5306,VALID,131,VALID,0.313281,
2009-07-01, 02:22:04,VALID,1000.82,VALID,0,VALID,92.6694,VALID,0,VALID,22.5501,VALID,131,VALID,0.259766,
2009-07-01, 02:23:04,VALID,1000.79,VALID,0,VALID,92.4939,VALID,0,VALID,22.5501,VALID,131,VALID,0.195313,
2009-07-01, 02:24:04,VALID,1000.78,VALID,0,VALID,92.4023,VALID,0,VALID,22.5501,VALID,131,VALID,0.339844,
2009-07-01, 02:25:04,VALID,1000.79,VALID,0,VALID,92.2803,VALID,0,VALID,22.5714,VALID,131,VALID,0.230469,
2009-07-01, 02:26:04,VALID,1000.79,VALID,0,VALID,91.4715,VALID,0,VALID,22.5323,VALID,131,VALID,0.331641,
2009-07-01, 02:27:04,VALID,1000.77,VALID,0,VALID,91.7614,VALID,0,VALID,22.4331,VALID,130,VALID,0.378125,
2009-07-01, 02:28:04,VALID,1000.75,VALID,0,VALID,91.9064,VALID,0,VALID,22.4543,VALID,129,VALID,0.328516,
2009-07-01, 02:29:04,VALID,1000.71,VALID,0,VALID,91.7767,VALID,0,VALID,22.3941,VALID,113,VALID,0.422656,
2009-07-01, 02:30:04,VALID,1000.75,VALID,0,VALID,92.1124,VALID,0,VALID,22.4153,VALID,88,VALID,0.401563,
2009-07-01, 02:31:04,VALID,1000.75,VALID,0,VALID,92.1048,VALID,0,VALID,22.3746,VALID,88,VALID,0.5,
2009-07-01, 02:32:04,VALID,1000.78,VALID,0,VALID,92.3794,VALID,0,VALID,22.3941,VALID,86,VALID,0.478906,
2009-07-01, 02:33:04,VALID,1000.74,VALID,0,VALID,92.4176,VALID,0,VALID,22.4136,VALID,77,VALID,0.362109,
2009-07-01, 02:34:04,VALID,1000.75,VALID,0,VALID,92.5702,VALID,0,VALID,22.4543,VALID,77,VALID,0.289453,
2009-07-01, 02:35:04,VALID,1000.76,VALID,0,VALID,92.6846,VALID,0,VALID,22.4721,VALID,39,VALID,0.624609,
2009-07-01, 02:36:04,VALID,1000.75,VALID,0,VALID,92.5778,VALID,0,VALID,22.5128,VALID,17,VALID,0.85,
2009-07-01, 02:37:04,VALID,1000.73,VALID,0,VALID,92.4863,VALID,0,VALID,22.4916,VALID,15,VALID,0.965625,
2009-07-01, 02:38:04,VALID,1000.74,VALID,0,VALID,92.326,VALID,0,VALID,22.5111,VALID,12,VALID,0.693359,
2009-07-01, 02:39:04,VALID,1000.74,VALID,0,VALID,92.1811,VALID,0,VALID,22.5323,VALID,12,VALID,0.330859,
2009-07-01, 02:40:04,VALID,1000.76,VALID,0,VALID,92.2116,VALID,0,VALID,22.5306,VALID,12,VALID,0.372266,
2009-07-01, 02:41:04,VALID,1000.79,VALID,0,VALID,92.265,VALID,0,VALID,22.5519,VALID,12,VALID,0.230859,
2009-07-01, 02:42:04,VALID,1000.77,VALID,0,VALID,92.2345,VALID,0,VALID,22.5519,VALID,12,VALID,0.19375,
2009-07-01, 02:43:04,VALID,1000.78,VALID,0,VALID,92.2879,VALID,0,VALID,22.5111,VALID,12,VALID,0,
2009-07-01, 02:44:04,VALID,1000.73,VALID,0,VALID,92.2955,VALID,0,VALID,22.5306,VALID,12,VALID,0,
2009-07-01, 02:45:04,VALID,1000.76,VALID,0,VALID,92.2879,VALID,0,VALID,22.5306,VALID,12,VALID,0.117188,
2009-07-01, 02:46:04,VALID,1000.74,VALID,0,VALID,92.2955,VALID,0,VALID,22.5111,VALID,12,VALID,0.247656,
2009-07-01, 02:47:04,VALID,1000.71,VALID,0,VALID,92.3184,VALID,0,VALID,22.5323,VALID,12,VALID,0.353516,
2009-07-01, 02:48:04,VALID,1000.72,VALID,0,VALID,92.2955,VALID,0,VALID,22.5306,VALID,12,VALID,0.294141,
2009-07-01, 02:49:04,VALID,1000.71,VALID,0,VALID,92.204,VALID,0,VALID,22.5306,VALID,12,VALID,0.317578,
2009-07-01, 02:50:04,VALID,1000.72,VALID,0,VALID,92.1658,VALID,0,VALID,22.5323,VALID,12,VALID,0.3875,
2009-07-01, 02:51:04,VALID,1000.71,VALID,0,VALID,92.2192,VALID,0,VALID,22.5111,VALID,12,VALID,0.492188,
2009-07-01, 02:52:04,VALID,1000.7,VALID,0,VALID,92.1429,VALID,0,VALID,22.4933,VALID,12,VALID,0.530469,
2009-07-01, 02:53:04,VALID,1000.7,VALID,0,VALID,92.1506,VALID,0,VALID,22.4916,VALID,13,VALID,0.664063,
2009-07-01, 02:54:04,VALID,1000.71,VALID,0,VALID,92.204,VALID,0,VALID,22.4721,VALID,13,VALID,0.617188,
2009-07-01, 02:55:04,VALID,1000.71,VALID,0,VALID,91.9064,VALID,0,VALID,22.4543,VALID,13,VALID,0.560547,
2009-07-01, 02:56:04,VALID,1000.72,VALID,0,VALID,91.6851,VALID,0,VALID,22.4153,VALID,13,VALID,0.474609,
2009-07-01, 02:57:04,VALID,1000.69,VALID,0,VALID,91.6851,VALID,0,VALID,22.3763,VALID,13,VALID,0.549219,
2009-07-01, 02:58:04,VALID,1000.68,VALID,0,VALID,91.5249,VALID,0,VALID,22.2966,VALID,13,VALID,0.621484,
2009-07-01, 02:59:04,VALID,1000.65,VALID,0,VALID,91.6851,VALID,0,VALID,22.2592,VALID,13,VALID,0.860937,
2009-07-01, 03:00:04,VALID,1000.67,VALID,0,VALID,91.6928,VALID,0,VALID,22.199,VALID,13,VALID,0.725781,
2009-07-01, 03:01:04,VALID,1000.68,VALID,0,VALID,91.9064,VALID,0,VALID,22.16,VALID,13,VALID,0.5375,
2009-07-01, 03:02:04,VALID,1000.66,VALID,0,VALID,92.0285,VALID,0,VALID,22.1617,VALID,13,VALID,0.401953,
2009-07-01, 03:03:04,VALID,1000.64,VALID,0,VALID,92.1429,VALID,0,VALID,22.1015,VALID,13,VALID,0.311328,
2009-07-01, 03:04:04,VALID,1000.65,VALID,0,VALID,92.3871,VALID,0,VALID,22.1015,VALID,13,VALID,0.267578,
2009-07-01, 03:05:04,VALID,1000.66,VALID,0,VALID,92.3871,VALID,0,VALID,22.1015,VALID,13,VALID,0.208594,
2009-07-01, 03:06:04,VALID,1000.68,VALID,0,VALID,92.3566,VALID,0,VALID,22.1032,VALID,13,VALID,0.200781,
2009-07-01, 03:07:04,VALID,1000.65,VALID,0,VALID,92.4252,VALID,0,VALID,22.0625,VALID,13,VALID,0.302344,
2009-07-01, 03:08:04,VALID,1000.6,VALID,0,VALID,92.5091,VALID,0,VALID,22.043,VALID,13,VALID,0.439453,
2009-07-01, 03:09:04,VALID,1000.59,VALID,0,VALID,92.6007,VALID,0,VALID,22.0642,VALID,13,VALID,0.68125,
2009-07-01, 03:10:04,VALID,1000.57,VALID,0,VALID,92.5168,VALID,0,VALID,22.0447,VALID,14,VALID,0.648828,
2009-07-01, 03:11:04,VALID,1000.52,VALID,0,VALID,92.4557,VALID,0,VALID,22.0252,VALID,14,VALID,0.400391,
2009-07-01, 03:12:04,VALID,1000.55,VALID,0,VALID,92.3031,VALID,0,VALID,21.9862,VALID,14,VALID,0.147656,
2009-07-01, 03:13:04,VALID,1000.52,VALID,0,VALID,92.4557,VALID,0,VALID,21.9667,VALID,14,VALID,0.0488281,
2009-07-01, 03:14:04,VALID,1000.52,VALID,0,VALID,92.8143,VALID,0,VALID,21.9455,VALID,14,VALID,0.238672,
2009-07-01, 03:15:04,VALID,1000.55,VALID,0,VALID,92.9517,VALID,0,VALID,21.965,VALID,14,VALID,0.160938,
2009-07-01, 03:16:04,VALID,1000.55,VALID,0,VALID,92.9822,VALID,0,VALID,21.9862,VALID,14,VALID,0.181641,
2009-07-01, 03:17:04,VALID,1000.58,VALID,0,VALID,93.028,VALID,0,VALID,21.965,VALID,14,VALID,0.370313,
2009-07-01, 03:18:04,VALID,1000.54,VALID,0,VALID,93.15,VALID,0,VALID,21.965,VALID,14,VALID,0.537109,
2009-07-01, 03:19:04,VALID,1000.54,VALID,0,VALID,93.3255,VALID,0,VALID,22.0057,VALID,14,VALID,0.517187,
2009-07-01, 03:20:04,VALID,1000.54,VALID,0,VALID,93.2874,VALID,0,VALID,22.0447,VALID,14,VALID,0.592578,
2009-07-01, 03:21:04,VALID,1000.52,VALID,0,VALID,93.1424,VALID,0,VALID,22.0625,VALID,14,VALID,0.632813,
2009-07-01, 03:22:04,VALID,1000.53,VALID,0,VALID,92.9517,VALID,0,VALID,22.082,VALID,14,VALID,0.596094,
2009-07-01, 03:23:04,VALID,1000.5,VALID,0,VALID,92.8372,VALID,0,VALID,22.121,VALID,14,VALID,0.576953,
2009-07-01, 03:24:04,VALID,1000.5,VALID,0,VALID,92.8601,VALID,0,VALID,22.1812,VALID,14,VALID,0.627734,
2009-07-01, 03:25:04,VALID,1000.52,VALID,0,VALID,92.8372,VALID,0,VALID,22.1795,VALID,14,VALID,0.708984,
2009-07-01, 03:26:04,VALID,1000.53,VALID,0,VALID,92.7685,VALID,0,VALID,22.199,VALID,14,VALID,0.74375,
2009-07-01, 03:27:04,VALID,1000.5,VALID,0,VALID,92.5778,VALID,0,VALID,22.199,VALID,14,VALID,0.792578,
2009-07-01, 03:28:04,VALID,1000.49,VALID,0,VALID,92.41,VALID,0,VALID,22.2202,VALID,16,VALID,0.789453,
2009-07-01, 03:29:04,VALID,1000.48,VALID,0,VALID,92.326,VALID,0,VALID,22.1795,VALID,17,VALID,0.8375,
2009-07-01, 03:30:04,VALID,1000.44,VALID,0,VALID,92.2497,VALID,0,VALID,22.2007,VALID,17,VALID,0.955078,
2009-07-01, 03:31:04,VALID,1000.45,VALID,0,VALID,92.1734,VALID,0,VALID,22.1617,VALID,17,VALID,0.966016,
2009-07-01, 03:32:04,VALID,1000.48,VALID,0,VALID,91.9217,VALID,0,VALID,22.082,VALID,17,VALID,0.949219,
2009-07-01, 03:33:04,VALID,1000.5,VALID,0,VALID,91.7843,VALID,0,VALID,22.0235,VALID,19,VALID,0.883594,
2009-07-01, 03:34:04,VALID,1000.49,VALID,0,VALID,91.9445,VALID,0,VALID,21.9845,VALID,19,VALID,0.724609,
2009-07-01, 03:35:04,VALID,1000.49,VALID,0,VALID,92.1887,VALID,0,VALID,21.965,VALID,21,VALID,0.736328,
2009-07-01, 03:36:04,VALID,1000.5,VALID,0,VALID,92.1811,VALID,0,VALID,21.9667,VALID,22,VALID,0.823438,
2009-07-01, 03:37:04,VALID,1000.45,VALID,0,VALID,92.6617,VALID,0,VALID,21.965,VALID,22,VALID,0.923828,
2009-07-01, 03:38:04,VALID,1000.49,VALID,0,VALID,92.6846,VALID,0,VALID,21.965,VALID,22,VALID,0.858203,
2009-07-01, 03:39:04,VALID,1000.49,VALID,0,VALID,92.8372,VALID,0,VALID,21.9845,VALID,23,VALID,0.819141,
2009-07-01, 03:40:04,VALID,1000.49,VALID,0,VALID,92.8372,VALID,0,VALID,22.0235,VALID,27,VALID,0.695313,
2009-07-01, 03:41:04,VALID,1000.53,VALID,0,VALID,92.8525,VALID,0,VALID,22.0837,VALID,27,VALID,0.639453,
2009-07-01, 03:42:04,VALID,1000.55,VALID,0,VALID,92.7533,VALID,0,VALID,22.0625,VALID,27,VALID,0.519141,
2009-07-01, 03:43:04,VALID,1000.52,VALID,0,VALID,92.7762,VALID,0,VALID,22.1015,VALID,27,VALID,0.476172,
2009-07-01, 03:44:04,VALID,1000.54,VALID,0,VALID,92.8677,VALID,0,VALID,22.1227,VALID,27,VALID,0.582422,
2009-07-01, 03:45:04,VALID,1000.54,VALID,0,VALID,93.0356,VALID,0,VALID,22.1617,VALID,27,VALID,0.644922,
2009-07-01, 03:46:04,VALID,1000.5,VALID,0,VALID,93.0814,VALID,0,VALID,22.2007,VALID,72,VALID,0.721094,
2009-07-01, 03:47:04,VALID,1000.49,VALID,0,VALID,92.9288,VALID,0,VALID,22.16,VALID,72,VALID,0.705859,